User: anonymous   Login
Location: Unspecified
(0.0000°N, 0.0000°E)
Time: 01:10:55
(UTC+00:00)
Language:

SMS 1 - Orbit

View from above orbital plane
View from above orbital plane
View from above satellite
View from above satellite

Ground track
Ground track

The orbit data is extracted from the following two-line orbital elements,

1  7298U 74033A   21023.79495611  .00000075  00000-0  00000+0 0  9994
2  7298   9.1549 287.2693 0018899  17.1129 170.1817  0.98610402100443
Epoch (UTC): 23 January 2021 19:04:44
Eccentricity: 0.0018899
inclination: 9.1549°
perigee height: 36178 km
apogee height: 36339 km
right ascension of ascending node: 287.2693°
argument of perigee: 17.1129°
revolutions per day: 0.98610402
mean anomaly at epoch: 170.1817°
orbit number at epoch: 10044

The dashed part of the orbit path shows where the satellite is in the earth's shadow,  

DLR